Long Prairie, MN

4:32 PM CST on February 21, 2017 (GMT -0600)
Long Prairie

Weather History for K14Y - July, 2013

Change the Weather History Date:

Wednesday, July 10, 2013

  Actual Average (KAXN) Record (KAXN)
Temperature  
Mean Temperature 66 °F -  
Max Temperature 77 °F 82 °F 96 °F (1966)
Min Temperature 55 °F 61 °F 46 °F (1965)
Cooling Degree Days 1    
Growing Degree Days 16 (Base 50)    
Moisture  
Dew Point 54 °F    
Average Humidity 68    
Maximum Humidity 94    
Minimum Humidity 39    
Precipitation  
Precipitation 0.00 in - - ()
Sea Level Pressure  
Sea Level Pressure 30.06 in    
Wind  
Wind Speed 7 mph (WNW)    
Max Wind Speed 16 mph    
Max Gust Speed 20 mph    
Visibility 10 miles    
Events      
Averages and records for this station are not official NWS values.
T = Trace of Precipitation, MM = Missing Value Source: NWS Daily Summary

Daily Weather History Graph

Daily Weather History Graph

Search for Another Location

Airport or City:

Trip Planner

Search our weather history database for the weather conditions in past years. The results will help you decide how hot, cold, wet, or windy it might be!

Date:

Astronomy

Jul. 10, 2013 Rise Set
Actual Time 5:39 AM CDT 9:09 PM CDT
Civil Twilight 5:02 AM CDT 9:47 PM CDT
Nautical Twilight 4:12 AM CDT 10:36 PM CDT
Astronomical Twilight 3:07 AM CDT 11:40 PM CDT
Moon 8:11 AM CDT (7/10) 10:07 PM CDT (7/10)
Length of Visible Light 16h 44m
Length of Day
15h 30m
Waxing Crescent, 5% of the Moon is Illuminated
Jul 10
Waxing Crescent
Jul 15
First Quarter
Jul 22
Full
Jul 29
Last Quarter
Aug 6
New

Hourly Weather History & Observations

Time (CDT) Temp. Dew Point Humidity Pressure Visibility Wind Dir Wind Speed Gust Speed Precip Events Conditions
12:16 AM 60.8 °F 53.6 °F 77% 30.01 in 10.0 mi WNW 8.1 mph - N/A   Clear
12:36 AM 60.8 °F 53.6 °F 77% 30.02 in 10.0 mi WNW 6.9 mph - N/A   Clear
12:56 AM 60.8 °F 53.6 °F 77% 30.02 in 10.0 mi WNW 8.1 mph - N/A   Clear
1:16 AM 60.8 °F 53.6 °F 77% 30.02 in 10.0 mi West 9.2 mph - N/A   Clear
1:37 AM 59.0 °F 53.6 °F 82% 30.03 in 10.0 mi West 8.1 mph - N/A   Clear
1:56 AM 59.0 °F 53.6 °F 82% 30.02 in 10.0 mi WNW 9.2 mph - N/A   Clear
2:16 AM 59.0 °F 53.6 °F 82% 30.03 in 10.0 mi WNW 8.1 mph - N/A   Clear
2:36 AM 59.0 °F 53.6 °F 82% 30.03 in 10.0 mi West 5.8 mph - N/A   Clear
2:56 AM 59.0 °F 53.6 °F 82% 30.04 in 10.0 mi West 8.1 mph - N/A   Clear
3:16 AM 57.2 °F 53.6 °F 88% 30.04 in 10.0 mi West 9.2 mph - N/A   Clear
3:36 AM 57.2 °F 53.6 °F 88% 30.04 in 10.0 mi WNW 8.1 mph - N/A   Clear
3:56 AM 55.4 °F 53.6 °F 94% 30.04 in 10.0 mi West 8.1 mph - N/A   Clear
4:16 AM 55.4 °F 53.6 °F 94% 30.05 in 10.0 mi West 9.2 mph - N/A   Clear
4:37 AM 55.4 °F 53.6 °F 94% 30.05 in 10.0 mi WNW 8.1 mph - N/A   Clear
4:56 AM 55.4 °F 53.6 °F 94% 30.06 in 10.0 mi West 6.9 mph - N/A   Clear
5:16 AM 55.4 °F 53.6 °F 94% 30.06 in 10.0 mi West 5.8 mph - N/A   Clear
5:36 AM 55.4 °F 53.6 °F 94% 30.06 in 10.0 mi West 5.8 mph - N/A   Clear
5:56 AM 55.4 °F 53.6 °F 94% 30.07 in 10.0 mi WSW 4.6 mph - N/A   Clear
6:17 AM 55.4 °F 53.6 °F 94% 30.07 in 10.0 mi WSW 6.9 mph - N/A   Clear
6:36 AM 55.4 °F 53.6 °F 94% 30.07 in 10.0 mi West 6.9 mph - N/A   Clear
6:56 AM 57.2 °F 53.6 °F 88% 30.07 in 10.0 mi West 8.1 mph - N/A   Clear
7:16 AM 59.0 °F 53.6 °F 82% 30.08 in 10.0 mi West 6.9 mph - N/A   Clear
7:37 AM 60.8 °F 53.6 °F 77% 30.08 in 10.0 mi West 8.1 mph - N/A   Clear
7:56 AM 60.8 °F 55.4 °F 82% 30.08 in 10.0 mi West 9.2 mph - N/A   Clear
8:16 AM 62.6 °F 55.4 °F 77% 30.08 in 10.0 mi West 8.1 mph - N/A   Clear
8:36 AM 62.6 °F 55.4 °F 77% 30.09 in 10.0 mi West 6.9 mph - N/A   Clear
8:56 AM 64.4 °F 55.4 °F 73% 30.09 in 10.0 mi West 8.1 mph - N/A   Clear
9:16 AM 64.4 °F 55.4 °F 73% 30.10 in 10.0 mi West 10.4 mph - N/A   Clear
9:36 AM 66.2 °F 55.4 °F 68% 30.10 in 10.0 mi West 6.9 mph - N/A   Clear
9:56 AM 68.0 °F 55.4 °F 64% 30.10 in 10.0 mi West 8.1 mph - N/A   Clear
10:16 AM 68.0 °F 55.4 °F 64% 30.10 in 10.0 mi WNW 9.2 mph - N/A   Clear
10:36 AM 69.8 °F 55.4 °F 60% 30.10 in 10.0 mi West 6.9 mph - N/A   Clear
10:56 AM 69.8 °F 55.4 °F 60% 30.10 in 10.0 mi WNW 11.5 mph - N/A   Clear
11:16 AM 71.6 °F 55.4 °F 57% 30.10 in 10.0 mi WNW 8.1 mph 16.1 mph N/A   Clear
11:37 AM 71.6 °F 55.4 °F 57% 30.09 in 10.0 mi WNW 13.8 mph - N/A   Clear
11:56 AM 71.6 °F 55.4 °F 57% 30.09 in 10.0 mi WNW 16.1 mph - N/A   Scattered Clouds
12:16 PM 73.4 °F 53.6 °F 50% 30.09 in 10.0 mi NW 9.2 mph 18.4 mph N/A   Scattered Clouds
12:37 PM 73.4 °F 53.6 °F 50% 30.09 in 10.0 mi NW 8.1 mph 17.3 mph N/A   Scattered Clouds
12:56 PM 75.2 °F 53.6 °F 47% 30.09 in 10.0 mi West 11.5 mph 18.4 mph N/A   Scattered Clouds
1:16 PM 75.2 °F 53.6 °F 47% 30.08 in 10.0 mi NW 9.2 mph 16.1 mph N/A   Scattered Clouds
1:37 PM 75.2 °F 53.6 °F 47% 30.08 in 10.0 mi NW 6.9 mph - N/A   Scattered Clouds
1:57 PM 77.0 °F 51.8 °F 41% 30.08 in 10.0 mi NW 9.2 mph 19.6 mph N/A   Scattered Clouds
2:16 PM 77.0 °F 53.6 °F 44% 30.07 in 10.0 mi West 9.2 mph 12.7 mph N/A   Scattered Clouds
2:36 PM 77.0 °F 53.6 °F 44% 30.07 in 10.0 mi WNW 11.5 mph - N/A   Scattered Clouds
2:56 PM 77.0 °F 51.8 °F 41% 30.07 in 10.0 mi West 10.4 mph - N/A   Scattered Clouds
3:17 PM 77.0 °F 51.8 °F 41% 30.07 in 10.0 mi West 8.1 mph - N/A   Scattered Clouds
3:36 PM 75.2 °F 51.8 °F 44% 30.06 in 10.0 mi WNW 9.2 mph - N/A   Mostly Cloudy
3:56 PM 77.0 °F 51.8 °F 41% 30.06 in 10.0 mi WNW 11.5 mph - N/A   Scattered Clouds
4:16 PM 77.0 °F 50.0 °F 39% 30.07 in 10.0 mi West 10.4 mph - N/A   Scattered Clouds
4:36 PM 77.0 °F 50.0 °F 39% 30.06 in 10.0 mi WNW 9.2 mph - N/A   Clear
4:57 PM 77.0 °F 50.0 °F 39% 30.06 in 10.0 mi WNW 8.1 mph - N/A   Clear
5:16 PM 77.0 °F 50.0 °F 39% 30.05 in 10.0 mi WNW 8.1 mph - N/A   Clear
5:36 PM 77.0 °F 51.8 °F 41% 30.05 in 10.0 mi NW 6.9 mph - N/A   Clear
5:57 PM 75.2 °F 51.8 °F 44% 30.05 in 10.0 mi WNW 6.9 mph - N/A   Clear
6:17 PM 75.2 °F 51.8 °F 44% 30.04 in 10.0 mi WNW 8.1 mph - N/A   Clear
6:36 PM 75.2 °F 51.8 °F 44% 30.05 in 10.0 mi WNW 5.8 mph - N/A   Clear
6:56 PM 73.4 °F 53.6 °F 50% 30.05 in 10.0 mi WNW 5.8 mph - N/A   Clear
7:17 PM 73.4 °F 51.8 °F 47% 30.05 in 10.0 mi NW 5.8 mph - N/A   Clear
7:36 PM 73.4 °F 53.6 °F 50% 30.05 in 10.0 mi WNW 3.5 mph - N/A   Clear
7:56 PM 71.6 °F 55.4 °F 57% 30.05 in 10.0 mi WNW 3.5 mph - N/A   Clear
8:17 PM 71.6 °F 55.4 °F 57% 30.05 in 10.0 mi Calm Calm - N/A   Clear
8:37 PM 69.8 °F 55.4 °F 60% 30.05 in 10.0 mi Calm Calm - N/A   Clear
8:56 PM 69.8 °F 55.4 °F 60% 30.05 in 10.0 mi Calm Calm - N/A   Clear
9:16 PM 68.0 °F 55.4 °F 64% 30.05 in 10.0 mi Calm Calm - N/A   Clear
9:36 PM 64.4 °F 60.8 °F 88% 30.06 in 10.0 mi Calm Calm - N/A   Clear
9:57 PM 62.6 °F 59.0 °F 88% 30.07 in 10.0 mi Calm Calm - N/A   Clear
10:17 PM 62.6 °F 59.0 °F 88% 30.07 in 10.0 mi Calm Calm - N/A   Clear
10:36 PM 60.8 °F 59.0 °F 94% 30.07 in 10.0 mi Calm Calm - N/A   Clear
10:56 PM 60.8 °F 59.0 °F 94% 30.07 in 7.0 mi Calm Calm - N/A   Clear
11:17 PM 60.8 °F 59.0 °F 94% 30.07 in 7.0 mi Calm Calm - N/A   Clear
11:37 PM 60.8 °F 59.0 °F 94% 30.08 in 10.0 mi Calm Calm - N/A   Clear
11:57 PM 59.0 °F 57.2 °F 94% 30.08 in 7.0 mi Calm Calm - N/A   Clear